FW1892 Weather Reports


Display with metric or nautical units.
time (UTC)temp
F
wind
direction
speed
MPH
gust
MPH
rain 1hr
in
rain 24hr
in
rain mn
in
humidity
%
barometer
mb
20260502170231 53 178 6.0 7.0 0.00 0.10 0.10 72 1009.3
20260502164218 53 87 1.0 1.0 0.00 0.10 0.10 70 1009.3
20260502163713 53 143 0.0 0.0 0.00 0.10 0.10 69 1009.3
20260502163210 53 213 1.0 3.0 0.00 0.10 0.10 69 1009.5
20260502162708 54 104 2.0 4.0 0.00 0.10 0.10 67 1009.5
20260502162204 54 94 1.0 3.0 0.00 0.10 0.10 67 1009.6
20260502161701 54 304 2.0 3.0 0.00 0.10 0.10 68 1009.7
20260502161158 54 61 3.0 6.0 0.00 0.10 0.10 67 1009.6
20260502160656 54 136 1.0 3.0 0.00 0.10 0.10 67 1009.8
20260502160155 54 223 2.0 3.0 0.00 0.10 0.10 67 1009.9
20260502152109 52 148 2.0 3.0 0.00 0.10 0.10 71 1010.2
20260502151606 52 204 1.0 2.0 0.00 0.10 0.10 71 1010.3
20260502151103 52 178 1.0 6.0 0.00 0.10 0.10 69 1010.3
20260502150600 52 291 2.0 2.0 0.00 0.10 0.10 71 1010.2
20260502130445 47 139 0.0 0.0 0.00 0.10 0.10 89 1011.1
20260502123428 46 92 0.0 0.0 0.00 0.10 0.10 91 1011.2
20260502122925 45 93 0.0 0.0 0.00 0.10 0.10 91 1011.3
20260502122421 45 141 0.0 0.0 0.00 0.10 0.10 91 1011.1
20260502121920 45 137 0.0 0.0 0.00 0.10 0.10 92 1011.3
20260502121416 45 139 0.0 0.0 0.05 0.10 0.10 92 1011.3
20260502120914 44 129 0.0 0.0 0.12 0.10 0.10 92 1011.1
20260502120410 44 141 0.0 0.0 0.12 0.09 0.09 91 1011.3
20260502115907 44 158 0.0 0.0 0.17 0.08 0.08 91 1011.3
20260502115404 44 131 0.0 0.0 0.12 0.07 0.07 91 1011.4
20260502114900 44 144 0.0 1.0 0.07 0.05 0.05 90 1011.4
20260502114357 44 155 1.0 1.0 0.07 0.05 0.05 90 1011.3
20260502113854 44 158 0.0 1.0 0.00 0.04 0.04 89 1011.0
20260502113352 44 108 0.0 0.0 0.00 0.04 0.04 89 1011.0
20260502112850 44 325 1.0 2.0 0.00 0.04 0.04 89 1010.7
20260502112347 44 112 0.0 2.0 0.00 0.04 0.04 89 1010.6
20260502111845 44 119 0.0 1.0 0.00 0.04 0.04 90 1010.3
20260502111342 44 82 2.0 3.0 0.00 0.04 0.04 89 1010.2
20260502110840 44 5 1.0 1.0 0.00 0.04 0.04 90 1010.3
20260502110337 44 118 0.0 4.0 0.00 0.04 0.04 89 1010.4
20260502105834 44 346 2.0 2.0 0.00 0.04 0.04 90 1010.3
20260502105331 43 72 0.0 1.0 0.00 0.04 0.04 90 1010.1
20260502104829 43 81 1.0 1.0 0.00 0.04 0.04 89 1010.2
20260502104326 43 79 0.0 2.0 0.00 0.04 0.04 89 1010.3
20260502103823 43 131 0.0 0.0 0.00 0.04 0.04 89 1010.4
20260502103321 43 112 0.0 2.0 0.00 0.04 0.04 88 1010.3
20260502102818 43 105 0.0 0.0 0.07 0.04 0.04 87 1010.7
20260502102314 43 32 1.0 3.0 0.00 0.03 0.03 86 1010.5
20260502101812 43 352 2.0 2.0 0.05 0.03 0.03 85 1010.5
20260502101310 44 89 0.0 2.0 0.12 0.03 0.03 84 1010.7
20260502100808 44 137 0.0 3.0 0.07 0.02 0.02 82 1010.6
20260502100307 44 144 0.0 1.0 0.00 0.01 0.01 81 1010.3
20260502091241 45 153 0.0 0.0 0.00 0.00 0.00 75 1009.8
20260502090738 45 356 1.0 1.0 0.00 0.00 0.00 74 1010.1
20260502090234 45 76 0.0 2.0 0.00 0.00 0.00 73 1010.0
20260502071135 45 112 0.0 1.0 0.00 0.00 0.00 71 1010.4
20260502070633 46 86 0.0 1.0 0.00 0.00 0.00 69 1010.4
20260502070131 46 314 2.0 2.0 0.00 0.00 0.00 68 1010.7
20260502065629 46 71 1.0 2.0 0.00 0.00 0.00 67 1010.6
20260502065126 46 19 2.0 2.0 0.00 0.00 0.00 66 1010.7
20260502064625 45 311 3.0 3.0 0.00 0.00 0.00 69 1010.6
20260502064122 45 250 1.0 1.0 0.00 0.00 0.00 70 1010.3
20260502063620 45 85 0.0 1.0 0.00 0.00 0.00 69 1010.5
20260502063117 45 128 0.0 1.0 0.00 0.00 0.00 70 1010.7
20260502062614 45 301 2.0 3.0 0.00 0.00 0.00 71 1010.6
20260502062112 45 112 0.0 0.0 0.00 0.00 0.00 72 1010.4
20260502061610 46 148 1.0 4.0 0.00 0.00 0.00 71 1010.8
20260502061107 46 58 2.0 3.0 0.00 0.00 0.00 70 1010.5
20260502060607 46 153 0.0 0.0 0.00 0.00 0.00 69 1010.8
20260502060104 46 79 0.0 2.0 0.00 0.00 0.00 68 1010.7
20260502055602 46 119 0.0 0.0 0.00 0.00 0.00 70 1010.7
20260502055100 46 158 0.0 0.0 0.00 0.00 0.00 70 1010.8
20260502054558 45 172 0.0 0.0 0.00 0.00 0.00 70 1010.4
20260502054055 45 148 0.0 0.0 0.00 0.00 0.00 69 1010.6
20260502053552 45 118 0.0 0.0 0.00 0.00 0.00 68 1010.1
20260502053050 45 118 0.0 0.0 0.00 0.00 0.00 68 1010.3
20260502052548 45 117 0.0 0.0 0.00 0.00 0.00 68 1010.2
20260502052046 45 129 0.0 0.0 0.00 0.00 0.00 69 1010.2
20260502051544 46 162 0.0 0.0 0.00 0.00 0.00 69 1010.2
20260502051041 46 127 0.0 0.0 0.00 0.00 0.00 67 1010.2
20260502050537 46 101 0.0 0.0 0.00 0.00 0.00 67 1010.2
20260502050034 45 117 0.0 0.0 0.00 0.00 0.00 68 1010.4
20260502045531 45 137 0.0 0.0 0.00 0.00 0.00 66 1010.5
20260502045028 45 137 0.0 0.0 0.00 0.00 0.00 67 1010.1
20260502044524 46 138 0.0 0.0 0.00 0.00 0.00 67 1010.3
20260502044021 46 138 0.0 0.0 0.00 0.00 0.00 67 1010.4
20260502043519 45 125 0.0 0.0 0.00 0.00 0.00 67 1010.3
20260502043015 46 125 0.0 0.0 0.00 0.00 0.00 68 1010.2
20260502042510 45 144 0.0 0.0 0.00 0.00 0.00 68 1010.5
20260502042008 45 150 0.0 0.0 0.00 0.00 0.00 68 1010.2
20260502041506 45 134 0.0 0.0 0.00 0.00 0.00 67 1010.2
20260502041002 45 134 0.0 0.0 0.00 0.00 0.00 67 1010.1
20260502040458 45 147 0.0 0.0 0.00 0.00 0.00 66 1010.2
20260502035955 45 123 0.0 0.0 0.00 0.00 0.00 67 1010.3
20260502035451 45 122 0.0 0.0 0.00 0.00 0.00 65 1010.2
20260502034949 45 114 0.0 0.0 0.00 0.00 0.00 65 1010.1
20260502034447 45 133 0.0 0.0 0.00 0.00 0.00 64 1009.9
20260502033945 45 137 0.0 0.0 0.00 0.00 0.00 65 1010.4
20260502033443 45 137 0.0 0.0 0.00 0.00 0.00 65 1010.3
20260502032939 45 137 0.0 0.0 0.00 0.00 0.00 64 1010.2
20260502032436 45 137 0.0 0.0 0.00 0.00 0.00 64 1010.2
20260502031933 45 140 0.0 0.0 0.00 0.00 0.00 65 1010.1
20260502031431 45 147 0.0 0.0 0.00 0.00 0.00 61 1009.9
20260502030929 45 150 0.0 0.0 0.00 0.00 0.00 63 1010.1
20260502030427 45 140 0.0 0.0 0.00 0.00 0.00 66 1010.1
20260502025925 44 136 0.0 0.0 0.00 0.00 0.00 65 1009.9
20260502025421 44 143 0.0 0.0 0.00 0.00 0.00 65 1009.9
20260502024920 44 146 0.0 0.0 0.00 0.00 0.00 64 1010.0
20260502024418 44 135 0.0 0.0 0.00 0.00 0.00 65 1010.0
20260502023915 44 120 0.0 0.0 0.00 0.00 0.00 63 1010.0
20260502023412 44 116 0.0 0.0 0.00 0.00 0.00 65 1009.9
20260502022910 44 124 0.0 0.0 0.00 0.00 0.00 65 1009.9
20260502022406 44 124 0.0 0.0 0.00 0.00 0.00 63 1010.0
20260502021903 44 126 0.0 0.0 0.00 0.00 0.00 63 1010.0
20260502021400 44 151 0.0 0.0 0.00 0.00 0.00 63 1009.9
20260502020857 44 109 0.0 0.0 0.00 0.00 0.00 63 1009.9
20260502020355 45 108 0.0 0.0 0.00 0.00 0.00 63 1009.9
20260502015852 45 108 0.0 0.0 0.00 0.00 0.00 63 1009.9
20260502015349 45 108 0.0 0.0 0.00 0.00 0.00 60 1009.9
20260502014846 45 112 0.0 0.0 0.00 0.00 0.00 61 1010.0
20260502014343 46 114 0.0 0.0 0.00 0.00 0.00 60 1010.0
20260502013839 46 99 0.0 0.0 0.00 0.00 0.00 60 1010.0
20260502013335 47 106 0.0 0.0 0.00 0.00 0.00 58 1009.8
20260502012831 47 103 0.0 0.0 0.00 0.00 0.00 55 1009.9
20260502012330 47 84 0.0 0.0 0.00 0.00 0.00 57 1009.8
20260502011827 47 106 0.0 0.0 0.00 0.00 0.00 56 1009.9
20260502011323 48 103 0.0 0.0 0.00 0.00 0.00 55 1009.9
20260502010820 48 102 0.0 0.0 0.00 0.00 0.00 55 1009.8
20260502010316 48 100 0.0 0.0 0.00 0.00 0.00 54 1009.7
20260502005814 49 110 0.0 0.0 0.00 0.00 0.00 53 1009.6
20260502005312 49 99 0.0 0.0 0.00 0.00 0.00 53 1009.4
20260502004808 49 101 0.0 0.0 0.00 0.00 0.00 52 1009.6
20260502004304 49 90 0.0 0.0 0.00 0.00 0.00 52 1009.5
20260502003802 50 102 0.0 0.0 0.00 0.00 0.00 53 1009.5
20260502003259 50 106 0.0 0.0 0.00 0.00 0.00 52 1009.3
20260502002754 50 93 0.0 0.0 0.00 0.00 0.00 52 1009.4
20260502002253 51 102 0.0 0.0 0.00 0.00 0.00 50 1009.2
20260502001749 51 107 0.0 0.0 0.00 0.00 0.00 49 1009.3
20260502001248 51 107 0.0 0.0 0.00 0.00 0.00 49 1009.1
20260502000745 52 134 0.0 0.0 0.00 0.00 0.00 49 1009.0
20260502000243 53 101 0.0 0.0 0.00 0.00 0.00 46 1009.0
20260501235738 54 157 0.0 1.0 0.00 0.00 0.00 45 1008.8
20260501235234 54 131 0.0 0.0 0.00 0.00 0.00 44 1008.7
20260501234730 55 151 0.0 1.0 0.00 0.00 0.00 40 1008.6
20260501234227 56 131 0.0 1.0 0.00 0.00 0.00 38 1008.5
20260501233725 56 82 0.0 0.0 0.00 0.00 0.00 35 1008.5
20260501233223 57 82 0.0 0.0 0.00 0.00 0.00 35 1008.3
20260501232718 58 36 1.0 2.0 0.00 0.00 0.00 33 1008.4
20260501232216 58 230 1.0 1.0 0.00 0.00 0.00 33 1008.4
20260501231713 59 281 0.0 4.0 0.00 0.00 0.00 31 1008.3
20260501231211 60 291 1.0 1.0 0.00 0.00 0.00 31 1008.3
20260501230709 60 314 2.0 3.0 0.00 0.00 0.00 30 1008.1
20260501230208 60 11 2.0 3.0 0.00 0.00 0.00 30 1008.0
20260501230011 60 307 0.0 1.0 0.00 0.03 0.01 34 1007.7
20260501225705 60 317 4.0 4.0 0.00 0.00 0.00 30 1008.1
20260501225201 60 261 2.0 3.0 0.00 0.00 0.00 29 1008.3
20260501224657 60 246 2.0 4.0 0.00 0.00 0.00 30 1008.1
20260501224155 61 164 1.0 6.0 0.00 0.00 0.00 30 1008.0
20260501224011 60 232 0.0 1.0 0.00 0.04 0.01 33 1007.6
20260501223651 60 270 2.0 2.0 0.00 0.00 0.00 29 1008.0
20260501223148 61 31 3.0 7.0 0.00 0.00 0.00 29 1008.1
20260501222644 61 281 5.0 7.0 0.00 0.00 0.00 29 1007.9
20260501222141 61 303 5.0 13.0 0.00 0.00 0.00 29 1007.9
20260501222010 61 294 2.0 1.0 0.00 0.04 0.01 33 1007.4
20260501221638 61 237 3.0 6.0 0.00 0.00 0.00 28 1008.0
20260501221137 62 267 3.0 6.0 0.00 0.00 0.00 28 1007.7
20260501221011 0 0.0 0.0 0.31 0.00 0.00
20260501220633 61 248 4.0 8.0 0.00 0.00 0.00 28 1007.9
20260501220130 61 179 1.0 3.0 0.00 0.00 0.00 30 1007.8
20260501215627 62 264 2.0 8.0 0.00 0.00 0.00 29 1007.8
20260501215122 61 239 3.0 4.0 0.00 0.00 0.00 29 1007.9
20260501214617 62 292 5.0 6.0 0.00 0.00 0.00 28 1007.8
20260501214113 61 262 3.0 4.0 0.00 0.00 0.00 29 1007.6
20260501213610 62 317 6.0 10.0 0.00 0.00 0.00 27 1007.7
20260501213106 62 40 3.0 7.0 0.00 0.00 0.00 29 1007.7
20260501212603 61 79 2.0 7.0 0.00 0.00 0.00 28 1007.7
20260501212059 61 276 5.0 11.0 0.00 0.00 0.00 27 1007.7
20260501211556 62 302 4.0 8.0 0.00 0.00 0.00 27 1007.4
20260501211054 62 272 3.0 8.0 0.00 0.00 0.00 26 1007.4
20260501210550 61 312 4.0 4.0 0.00 0.00 0.00 30 1007.2
20260501210047 62 290 7.0 10.0 0.00 0.00 0.00 27 1007.1
20260501205544 63 30 2.0 3.0 0.00 0.00 0.00 28 1007.1
20260501205042 62 329 3.0 3.0 0.00 0.00 0.00 29 1007.1
20260501204537 62 304 4.0 8.0 0.00 0.00 0.00 29 1007.2
20260501204033 62 161 3.0 4.0 0.00 0.00 0.00 30 1007.2
20260501203530 61 290 5.0 8.0 0.00 0.00 0.00 29 1007.1
20260501203028 61 252 3.0 8.0 0.00 0.00 0.00 30 1007.0
20260501202525 62 308 9.0 10.0 0.00 0.00 0.00 28 1007.2
20260501202021 62 296 9.0 10.0 0.00 0.00 0.00 28 1007.2
20260501201519 61 69 0.0 7.0 0.00 0.00 0.00 31 1007.2
20260501201015 62 320 6.0 11.0 0.00 0.00 0.00 29 1007.2
20260501200512 61 307 5.0 8.0 0.00 0.00 0.00 29 1007.3
20260501200010 61 332 6.0 13.0 0.00 0.00 0.00 29 1007.1
20260501195507 61 259 5.0 9.0 0.00 0.00 0.00 31 1007.0
20260501195002 61 254 4.0 9.0 0.00 0.00 0.00 31 1007.4
20260501194458 60 226 6.0 9.0 0.00 0.00 0.00 32 1007.3
20260501193954 60 61 4.0 9.0 0.00 0.00 0.00 32 1007.4
20260501193452 60 254 5.0 7.0 0.00 0.00 0.00 32 1007.4
20260501192949 61 249 3.0 7.0 0.00 0.00 0.00 33 1007.5
20260501192447 62 240 1.0 11.0 0.00 0.00 0.00 31 1007.5
20260501191944 62 278 6.0 11.0 0.00 0.00 0.00 31 1007.6
20260501191436 62 283 3.0 6.0 0.00 0.00 0.00 33 1007.5
20260501190933 61 123 2.0 4.0 0.00 0.00 0.00 35 1007.6
20260501190428 60 231 4.0 8.0 0.00 0.00 0.00 33 1007.7
20260501185923 59 343 4.0 8.0 0.00 0.00 0.00 34 1007.5
20260501185420 60 308 5.0 8.0 0.00 0.00 0.00 35 1007.8
20260501184915 61 306 7.0 10.0 0.00 0.00 0.00 34 1007.5
20260501184412 61 14 2.0 7.0 0.00 0.00 0.00 33 1007.7
20260501183907 61 195 3.0 7.0 0.00 0.00 0.00 34 1007.8
20260501183405 61 298 5.0 14.0 0.00 0.00 0.00 33 1007.8
20260501182901 62 243 2.0 10.0 0.00 0.00 0.00 34 1007.7
20260501182358 61 37 1.0 14.0 0.00 0.00 0.00 34 1007.7
20260501181854 60 298 8.0 10.0 0.00 0.00 0.00 36 1007.7
20260501181351 60 271 6.0 9.0 0.00 0.00 0.00 36 1007.6
20260501180849 60 204 1.0 8.0 0.00 0.00 0.00 37 1007.6
20260501180345 60 133 2.0 7.0 0.00 0.00 0.00 37 1007.6
20260501175843 59 256 2.0 10.0 0.00 0.00 0.00 37 1007.6
20260501175339 59 62 5.0 8.0 0.00 0.00 0.00 38 1007.6
20260501174836 59 268 9.0 10.0 0.00 0.00 0.00 37 1007.9
20260501174333 59 219 4.0 7.0 0.00 0.00 0.00 38 1007.9
20260501173831 59 290 5.0 8.0 0.00 0.00 0.00 38 1007.7
20260501173329 58 282 5.0 10.0 0.00 0.00 0.00 37 1007.9
20260501172824 59 99 3.0 9.0 0.00 0.00 0.00 38 1007.9
20260501172319 59 316 4.0 13.0 0.00 0.00 0.00 38 1007.7
20260501171815 59 23 3.0 6.0 0.00 0.00 0.00 38 1007.8
20260501171312 58 247 2.0 6.0 0.00 0.00 0.00 39 1007.7